Regional Weather Roundup
Issued by NWS Charleston, WV

Home | Current Version | Previous Version | Graphics & Text | Print | Product List | Glossary On
Versions: 1 2 3 4 5 6 7 8 9 10 11 12 13 14 15 16 17 18 19 20 21 22 23 24 25 26 27 28 29 30 31 32 33 34 35 36 37 38 39 40 41 42 43 44 45 46 47 48 49 50
000
ASUS41 KRLX 022310
RWRRLX
West Virginia Regional Weather Roundup
National Weather Service Charleston WV
600 PM EST FRI DEC 02 2016

Note: "fair" indicates few or no clouds below 12,000 feet with no
significant weather and/or obstructions to visibility.

WVZ003-030000-
Northern Panhandle of West Virginia

CITY           SKY/WX    TMP DP  RH WIND       PRES   REMARKS
WHEELING       CLOUDY    36  29  75 W13       30.14R
$$

WVZ009-030000-
Northwest West Virginia

CITY           SKY/WX    TMP DP  RH WIND       PRES   REMARKS
PARKERSBURG    CLOUDY    36  32  85 W10       30.24R
$$

WVZ006-030000-
Western West Virginia

CITY           SKY/WX    TMP DP  RH WIND       PRES   REMARKS
HUNTINGTON     CLOUDY    39  28  64 W7        30.24S
$$

WVZ015-030000-
West Central West Virginia

CITY           SKY/WX    TMP DP  RH WIND       PRES   REMARKS
CHARLESTON     CLOUDY    38  28  67 W10G17    30.23R
$$

WVZ022-031-030000-
North Central West Virginia

CITY           SKY/WX    TMP DP  RH WIND       PRES   REMARKS
CLARKSBURG     LGT RAIN  34  32  92 SW9       30.18R FOG
MORGANTOWN     FLURRIES  37  31  78 SW7       30.16S
$$

WVZ025-035-042-045-030000-
Southern West Virginia

CITY           SKY/WX    TMP DP  RH WIND       PRES   REMARKS
BECKLEY        CLOUDY    35  26  69 NW13      30.15S
LOGAN          CLOUDY    37  28  70 NW7G14    30.20R
BLUEFIELD      CLEAR     36  26  67 NW9       30.12S
LEWISBURG      CLOUDY    34  27  76 W8        30.13F
$$

WVZ047-030000-
Northern Mountains of West Virginia

CITY           SKY/WX    TMP DP  RH WIND       PRES   REMARKS
ELKINS         CLOUDY    33  26  75 W8        30.16R
$$

WVZ052-030000-
Eastern Panhandle of West Virginia

CITY           SKY/WX    TMP DP  RH WIND       PRES   REMARKS
MARTINSBURG    CLOUDY    41  26  55 W10       30.09R
PETERSBURG     CLOUDY    40  28  63 W12G17    30.14R
$$



USA.gov is the U.S. government's official web portal to all federal, state and local government web resources and services.